Location: Calvatone
(45.1167°N, 10.4333°E)
Time: 21:44:10
(UTC+00:00)

Cosmos 1190 Rocket - Pass Details

Date: 28 January 2023
Orbit: 756 x 778 km, 74.1° (Epoch: 21 March)

Event Time Altitude Azimuth Distance (km) Brightness Sun altitude
Rises 17:52:16 0° 183° (S) 3,246 7.4 -16.4°
Reaches altitude 10° 17:54:42 10° 178° (S) 2,323 6.6 -16.8°
Maximum altitude 17:59:46 49° 105° (ESE) 996 4.2 -17.7°
Enters shadow 18:02:46 23° 41° (NE) 1,596 5.2 -18.2°
